Date String (YYYY-MM-DD hh:mm:ss) UTC,Instrument flags,Ambient pressure (hPa),Sample flow (lpm),Bypass flow (lpm),Sample temperature (°C),Ambient temperature (°C),ASC tube jacket temperature (°C),LED temperature (°C),Box temperature (°C),Sample RH (%),Span deviation,Mass concentration (μg/m³),Mass concentration (μg/m³),Mass concentration (μg/m³)
DateTimeUTC,F1_M11,P_M11,Q1_M11,Q2_M11,T1_M11,T2_M11,T3_M11,T4_M11,T5_M11,U1_M11,ZSPAN_M11,X0_M11,X2_M11,X1_M11
2022-10-01 21:00:00,,0826.6,5.00,0.00,30.0,27.8,00.0,38.6,31.9,25.5,-003.6,0007.80,0004.36,0004.09
2022-10-01 21:01:00,,0826.5,5.00,0.00,30.0,27.1,00.0,38.6,31.9,25.5,-002.6,0007.65,0004.30,0004.05
2022-10-01 21:02:00,,0826.6,5.01,0.00,30.0,27.1,00.0,38.6,31.8,25.4,-001.8,0007.63,0004.29,0004.03
2022-10-01 21:03:00,,0826.6,5.00,0.00,29.9,27.4,00.0,38.5,31.7,25.4,0000.0,0007.62,0004.29,0004.01
2022-10-01 21:04:00,,0826.7,5.00,0.00,29.9,27.7,00.0,38.5,31.7,25.5,0000.0,0007.63,0004.26,0004.00
2022-10-01 21:05:00,,0826.7,4.99,0.00,29.9,28.0,00.0,38.5,31.7,25.6,0000.0,0006.58,0004.22,0003.97
2022-10-01 21:06:00,,0826.8,5.01,0.00,29.9,28.2,00.0,38.5,31.8,25.7,0000.0,0006.51,0004.19,0003.96
2022-10-01 21:07:00,,0827.0,5.01,0.00,29.9,28.4,00.0,38.5,31.8,25.9,0000.0,0006.51,0004.17,0003.94
2022-10-01 21:08:00,,0827.0,4.99,0.00,29.9,28.6,00.0,38.5,31.8,25.6,0000.0,0006.59,0004.18,0003.94
2022-10-01 21:09:00,,0827.0,5.01,0.00,29.9,28.7,00.0,38.6,31.9,25.4,0000.0,0006.60,0004.19,0003.95
2022-10-01 21:10:00,,0827.1,4.99,0.00,30.0,28.9,00.0,38.6,31.9,25.3,0000.0,0006.64,0004.20,0003.95
2022-10-01 21:11:00,,0827.1,5.01,0.00,30.0,29.0,00.0,38.6,32.0,25.2,0000.0,0007.19,0004.20,0003.94
2022-10-01 21:12:00,,0827.2,4.99,0.00,30.0,28.7,00.0,38.6,32.0,25.2,0000.0,0007.68,0004.20,0003.94
2022-10-01 21:13:00,,0827.2,5.00,0.00,30.0,27.2,00.0,38.6,31.8,25.2,0000.0,0007.74,0004.17,0003.92
2022-10-01 21:14:00,,0827.4,5.01,0.00,29.9,26.2,00.0,38.6,31.7,25.4,0000.0,0008.52,0004.12,0003.88
2022-10-01 21:15:00,,0827.3,5.02,0.00,29.9,26.2,00.0,38.5,31.6,25.7,0000.0,0008.39,0004.08,0003.84
2022-10-01 21:16:00,,0827.3,4.99,0.00,29.8,26.4,00.0,38.5,31.4,25.8,0000.0,0008.37,0004.07,0003.82
2022-10-01 21:17:00,,0827.4,5.00,0.00,29.7,26.8,00.0,38.4,31.4,25.7,0000.0,0008.30,0004.07,0003.83
2022-10-01 21:18:00,,0827.4,4.99,0.00,29.7,27.2,00.0,38.4,31.4,25.7,0000.0,0008.27,0004.11,0003.87
2022-10-01 21:19:00,,0827.5,4.99,0.00,29.7,27.5,00.0,38.4,31.4,26.0,0000.0,0008.29,0004.11,0003.88
2022-10-01 21:20:00,,0827.6,5.01,0.00,29.7,27.8,00.0,38.4,31.5,26.4,0000.0,0008.35,0004.11,0003.88
2022-10-01 21:21:00,,0827.6,5.00,0.00,29.7,28.0,00.0,38.4,31.5,26.4,0000.0,0008.77,0004.12,0003.89
2022-10-01 21:22:00,,0827.4,5.01,0.00,29.7,28.2,00.0,38.4,31.6,23.7,-001.1,0008.85,0004.09,0003.85
2022-10-01 21:23:00,,0827.5,5.01,0.00,29.7,28.3,00.0,38.4,31.6,23.3,0000.0,0008.80,0003.97,0003.72
2022-10-01 21:24:00,,0827.6,4.99,0.00,29.7,28.4,00.0,38.4,31.6,21.3,-000.2,0008.88,0003.82,0003.59
2022-10-01 21:25:00,,0827.6,5.00,0.00,29.7,28.4,00.0,38.4,31.6,20.1,0000.0,0007.93,0003.63,0003.42
2022-10-01 21:26:00,,0827.7,5.00,0.00,29.7,28.5,00.0,38.4,31.6,21.2,0000.0,0008.54,0003.45,0003.23
2022-10-01 21:27:00,,0827.8,5.00,0.00,29.7,28.5,00.0,38.4,31.7,21.0,0000.0,0008.60,0003.30,0002.99
2022-10-01 21:28:00,,0827.9,5.00,0.00,29.8,28.6,00.0,38.4,31.7,21.4,0000.0,0009.18,0003.10,0002.62
2022-10-01 21:29:00,,0827.9,5.01,0.00,29.8,28.6,00.0,38.4,31.7,22.0,0000.0,0009.53,0002.92,0002.29
2022-10-01 21:30:00,,0828.1,4.98,0.00,29.8,28.6,00.0,38.5,31.7,22.2,0000.0,0010.18,0002.79,0001.98
2022-10-01 21:31:00,,0828.0,5.01,0.00,29.8,28.6,00.0,38.5,31.7,21.9,0000.0,0010.25,0002.68,0001.67
2022-10-01 21:32:00,,0828.0,5.00,0.00,29.8,28.7,00.0,38.5,31.7,22.1,0000.0,0010.05,0002.54,0001.35
2022-10-01 21:33:00,,0828.0,5.00,0.00,29.9,28.7,00.0,38.5,31.8,22.4,0000.0,0009.63,0002.39,0001.08
2022-10-01 21:34:00,,0827.8,5.00,0.00,29.9,28.7,00.0,38.5,31.8,22.3,0000.0,0009.41,0002.44,0001.01
2022-10-01 21:35:00,,0827.8,4.99,0.00,29.9,28.8,00.0,38.6,31.8,21.8,0000.0,0008.92,0002.48,0000.92
2022-10-01 21:36:00,,0827.8,5.02,0.00,29.9,28.8,00.0,38.6,31.9,21.3,0000.0,0008.99,0002.53,0000.91
2022-10-01 21:37:00,,0827.7,4.99,0.00,30.0,28.9,00.0,38.6,31.9,21.4,0000.0,0008.52,0002.64,0000.92
2022-10-01 21:38:00,,0827.6,5.01,0.00,30.0,28.0,00.0,38.6,31.9,21.5,0000.0,0008.65,0002.71,0000.94
2022-10-01 21:39:00,,0827.6,5.02,0.00,29.9,26.7,00.0,38.6,31.7,21.2,0000.0,0008.19,0002.74,0000.93
2022-10-01 21:40:00,,0827.7,5.00,0.00,29.9,26.5,00.0,38.5,31.6,21.3,0000.0,0007.45,0002.63,0000.91
2022-10-01 21:41:00,,0827.7,5.01,0.00,29.8,26.7,00.0,38.5,31.5,22.0,0000.0,0006.45,0002.46,0000.84
2022-10-01 21:42:00,,0827.7,5.01,0.00,29.7,27.0,00.0,38.4,31.4,22.7,0000.0,0006.09,0002.29,0000.79
2022-10-01 21:43:00,,0827.5,4.99,0.00,29.7,27.3,00.0,38.4,31.4,22.3,0000.0,0005.72,0002.15,0000.75
2022-10-01 21:44:00,,0827.5,5.00,0.00,29.6,27.5,00.0,38.4,31.4,21.3,0000.0,0005.31,0001.95,0000.66
2022-10-01 21:45:00,,0827.5,4.99,0.00,29.6,27.6,00.0,38.4,31.4,21.9,0000.0,0004.79,0001.72,0000.57
2022-10-01 21:46:00,,0827.5,5.01,0.00,29.6,27.8,00.0,38.4,31.4,21.6,0000.0,0004.40,0001.53,0000.50
2022-10-01 21:47:00,,0827.5,5.00,0.00,29.6,27.8,00.0,38.4,31.4,21.2,0000.0,0004.15,0001.40,0000.44
2022-10-01 21:48:00,,0827.4,5.00,0.00,29.6,27.9,00.0,38.4,31.5,20.4,0000.0,0003.71,0001.22,0000.39
2022-10-01 21:49:00,,0827.4,5.01,0.00,29.6,27.9,00.0,38.4,31.4,20.4,0000.0,0002.67,0001.05,0000.35
2022-10-01 21:50:00,,0827.4,4.99,0.00,29.6,28.0,00.0,38.4,31.4,20.3,0000.0,0002.33,0000.96,0000.33
2022-10-01 21:51:00,,0827.4,5.01,0.00,29.6,28.0,00.0,38.4,31.4,20.1,0000.0,0002.05,0000.88,0000.31
2022-10-01 21:52:00,,0827.4,5.01,0.00,29.6,28.0,00.0,38.4,31.4,20.4,0000.0,0001.72,0000.79,0000.31
2022-10-01 21:53:00,,0827.4,4.99,0.00,29.6,28.1,00.0,38.4,31.5,21.3,0000.0,0001.45,0000.67,0000.31
2022-10-01 21:54:00,,0827.4,5.01,0.00,29.6,28.2,00.0,38.4,31.5,21.5,0000.0,0001.11,0000.56,0000.31
2022-10-01 21:55:00,,0827.4,5.00,0.00,29.6,28.3,00.0,38.4,31.5,21.1,0000.0,0002.16,0000.61,0000.36
2022-10-01 21:56:00,,0827.3,4.99,0.00,29.7,28.3,00.0,38.4,31.6,20.8,0000.0,0002.32,0000.69,0000.41
2022-10-01 21:57:00,,0827.2,5.00,0.00,29.7,28.4,00.0,38.4,31.6,20.9,0000.0,0002.32,0000.75,0000.48
2022-10-01 21:58:00,,0827.2,5.00,0.00,29.7,28.4,00.0,38.4,31.6,19.3,0000.0,0002.46,0000.87,0000.58
2022-10-01 21:59:00,,0827.1,4.99,0.00,29.7,28.4,00.0,38.4,31.6,19.4,0000.0,0002.66,0001.00,0000.68
